Location: Balaclava NSW 2575, Australia
(34.4510°S, 150.4953°E)
Time: 20:38:40
(UTC+10:00)

Courier 1B Rocket - Visible Passes

Search period start: 15 June 2021 00:00
Search period end: 25 June 2021 00:00
Orbit: 920 x 1202 km, 28.2° (Epoch: 14 June)

Date Brightness Start Highest point End Pass type
(mag) Time Alt. Az. Time Alt. Az. Time Alt. Az.
16 Jun 7.9 05:44:10 10° N 05:47:07 13° NNE 05:50:06 10° NE visible
17 Jun 7.4 06:33:04 10° NNW 06:38:52 26° NNE 06:44:56 10° ENE visible
18 Jun 7.5 05:33:18 10° NNW 05:37:57 18° NNE 05:42:48 10° ENE visible
19 Jun 7.6 04:34:38 10° N 04:37:07 12° NNE 04:39:39 10° NE visible
19 Jun 6.9 06:23:32 10° NW 06:29:48 33° NNE 06:36:24 10° E visible
20 Jun 7.1 05:23:22 10° NNW 05:28:50 25° NNE 05:34:37 10° ENE visible
21 Jun 7.3 04:23:50 10° N 04:27:59 18° NNE 04:32:29 10° ENE visible
21 Jun 6.5 06:14:19 10° NW 06:20:46 40° NNE 06:27:41 10° E visible
22 Jun 7.5 03:27:16 11° NNE 03:27:16 11° NNE 03:29:11 10° NE visible
22 Jun 6.6 05:13:52 10° NW 05:19:48 32° NNE 05:26:07 10° E visible
23 Jun 6.7 04:16:59 21° N 04:18:55 24° NNE 04:24:22 10° ENE visible
23 Jun 6.1 06:05:17 10° WNW 06:11:49 46° N 06:18:51 10° E visible
24 Jun 7.4 03:20:11 15° NE 03:20:11 15° NE 03:22:16 10° ENE visible
24 Jun 6.2 05:06:35 19° NW 05:10:49 39° NNE 05:17:24 10° E visible
